FENGYUN 1C DEB

Satellite information

Favourite Embed

Satellite Type and Status

DEBRISIN ORBIT

Key statistics

Satellite FENGYUN 1C DEB at a glance.

Uptime

9616

Days in orbit

Revolutions

≈ 14.0

Per day

Orbit

SSO

Sun Synchronous Orbit

Inclination

98.8

Latest

Satellite identification and parameters

Extended collection of information and parameters for FENGYUN 1C DEB.

Object identification

Identified? True

Debris? True

Object name: FENGYUN 1C DEB

International designator: 1999-025MV

Object number (NORAD): 30020

Object ID (CCSDS): 30020

Country: PEOPLES REPUBLIC OF CHINA (PRC)

Current information (Y/N): Y

RCS size: SMALL

Orbital parameters

Period: 102.546 minutes

Inclination: 98.8483 deg

SMA: 7257.267 km

Apoapsis: 1012.329 km

Periapsis: 745.935 km

RAAN: 255.1794 deg

Eccentricy: 0.01835361

Argument of periapsis: 344.5091 deg

Mean anomaly: 84.1318 deg

Mean motion: 14.04245692 rev/day

Mean motion (dot): 0.00001326 rev/day2

B* drag term: 0.00074240945 1/REarth

Two-line elements (TLE)

Creation date: Sept. 6, 2025, 2:09 a.m.

Reference frame: TEME

Reference center: EARTH

Epoch: Sept. 5, 2025, 9:57 p.m. UTC

TLE line 0: 0 FENGYUN 1C DEB

TLE line 1: 1 30020U 99025MV 25248.91478184 .00001326 00000-0 74241-3 0 9996

TLE line 2: 2 30020 98.8483 255.1794 0183536 344.5091 84.1318 14.04245692952853

Live tracking on map

Real-time ground track for satellite FENGYUN 1C DEB.

In-orbit conjunctions

A list of the most updated potential collisions computed for object FENGYUN 1C DEB.

Target Orbit TCA Probability of collision Miss distance Type
CZ-6A DEB LEO 2025-05-19 06:45:19 0.0004574512 47.0 (m) DEBRIS
SL-8 R/B LEO 2025-04-02 16:28:33 0.0004166505 517.0 (m) ROCKET BODY

Associated space launch

Chinese polar orbiting meteorological satellite

FENGYUN 1C DEB was lifted into orbit during the mission ‘Long March 4B | Feng Yun 1C’, on board a Long March 4B space rocket.

The launch took place on May 10, 1999, 1:33 a.m. from Launch Complex 7.

For more information about the launch, click the button.

Launch to space Long March 4B | Feng Yun 1C
Long March 4B | Feng Yun 1C

Agency: N/A

Status: Launch Successful

Launch date: May 10, 1999, 1:33 a.m. UTC

Rocket: Long March 4B

Launch pad: Launch Complex 7

Location: Taiyuan Satellite Launch Center, People's Republic of China

...

Latest news about this satellite

There are no fresh news available about this satellite. Check back as we update our databases every day.


Newsletter sign-up

Weekly statistics, charts and insights to help you stay on top of the space industry.